Location: *
(45.9500°N, 9.0833°E)
Time: 14:26:53
(UTC+00:00)

SJ-6B - Pass Details

Date: 03 March 2021
Orbit: 509 x 581 km, 97.6° (Epoch: 14 April)

Event Time Altitude Azimuth Distance (km) Brightness Sun altitude
Exits shadow 19:23:10 45° 192° (SSW) 788 3.5 -23.2°
Maximum altitude 19:24:16 68° 258° (WSW) 621 3.1 -23.4°
Drops below altitude 10° 19:28:20 10° 342° (NNW) 1,877 5.9 -24.1°
Sets 19:30:29 0° 345° (NNW) 2,768 6.8 -24.4°
